Location: Buckland
(65.9785°N, 161.1281°W)
Time: 03:39:56
(UTC+00:00)

Transit 4A - Pass Details

Date: 26 November 2020
Orbit: 864 x 980 km, 66.8° (Epoch: 26 January)

Event Time Altitude Azimuth Distance (km) Brightness Sun altitude
Rises 19:32:44 0° 194° (SSW) 3,652 11.5 -3.4°
Reaches altitude 10° 19:35:30 10° 185° (S) 2,719 11.1 -3.3°
Maximum altitude 19:41:06 34° 124° (SE) 1,565 10.0 -2.9°
Drops below altitude 10° 19:46:46 10° 62° (ENE) 2,743 10.5 -2.5°
Sets 19:49:33 0° 54° (NE) 3,689 11.1 -2.4°
